sat.trackr.live / text

‹ back to catalog

STARLINK-36442

NORAD 67413 · 2026-005K

PAYLOAD ACTIVE UNKNOWN

§ Identity

Operator
Country
US
Launch date
2026-01-12
Launch site
AFETR
Launch vehicle
Mass (kg)
RCS (m²)

Purposes: comms

External: N2YO · Heavens-Above · Gunter

§ Orbital elements

Epoch: 2026-09-19T06:15:44.785728Z

Period
94.27 min
Inclination
42.9995°
Eccentricity
0.0001229
Mean motion
15.27585068 rev/d
Perigee alt
482.2 km
Apogee alt
483.9 km
Semi-major
6,861.2 km
B*
4.2026e-4
RAAN
224.5383°
Arg perigee
271.4386°
Mean anomaly
88.6325°
Rev number
3,830

§ Raw data

STARLINK-364421 67413U 26005K   26262.26093502  .00011322  00000+0  42026-3 0  99942 67413  42.9995 224.5383 0001229 271.4386  88.6325 15.27585068 38306

JSON: /api/v1/satellites/67413 · /tle

For live sub-satellite position, see the globe view (requires WebGL).

§ Visibility from observer

Set your observer location to see the next 7 days of passes ≥ 10°. The values pass through the URL so the page stays shareable.

No JS? Fill the form by hand. The geolocation button needs JavaScript.